Probability
76 77 81 85 86 86 86 81 77 76 75 71 67 64 63 62 59 58 59 58 57 60 61 57 52 49 47 43 38 33 27 19 13 11 11 11 11 10 9 7 5 3 2
71 71 73 76 78 80 79 75 72 72 72 71 69 68 66 61 52 47 46 45 45 47 47 44 40 38 37 34 31 29 23 15 10 8 7 7 6 5 4 3 2 1 1
58 58 59 61 64 68 69 68 68 69 70 71 72 74 72 60 42 31 27 25 24 26 27 25 23 22 20 19 20 19 15 8 5 4 3 2 2 1 0 0 0 0 0
45 44 43 44 45 49 51 55 57 59 63 69 71 71 65 49 30 19 14 11 10 11 11 11 10 9 8 8 8 8 6 3 1 2 1 1 1 1 0 0 0 0 0
35 33 30 29 28 30 32 35 39 42 47 56 60 54 42 28 17 11 8 6 6 5 4 4 3 3 3 2 2 2 1 0 0 0 0 0 0 0 0 0 0 0 0
26 24 22 20 18 19 21 22 24 25 29 34 36 30 21 13 9 7 5 4 4 4 3 2 1 1 1 0 0 0 0 0 0 0 0 0 0 0 0 0 0 0 0
15 16 16 15 14 14 15 15 15 14 15 15 14 13 11 8 5 4 4 3 2 2 1 1 0 0 0 0 0 0 0 0 0 0 0 0 0 0 0 0 0 0 0
11 10 10 9 10 10 9 9 8 7 7 5 4 4 5 4 3 2 2 1 1 1 0 0 0 0 0 0 0 0 0 0 0 0 0 0 0 0 0 0 0 0 0
8 7 5 5 5 5 4 4 3 3 3 2 1 1 1 1 1 1 1 0 0 0 0 0 0 0 0 0 0 0 0 0 0 0 0 0 0 0 0 0 0 0 0
4 4 3 2 1 1 1 1 1 1 1 1 0 0 0 0 0 0 0 0 0 0 0 0 0 0 0 0 0 0 0 0 0 0 0 0 0 0 0 0 0 0 0
1 1 1 1 0 0 0 0 0 0 0 0 0 0 0 0 0 0 0 0 0 0 0 0 0 0 0 0 0 0 0 0 0 0 0 0 0 0 0 0 0 0 0
0 0 0 0 0 0 0 0 0 0 0 0 0 0 0 0 0 0 0 0 0 0 0 0 0 0 0 0 0 0 0 0 0 0 0 0 0 0 0 0 0 0 0
0 0 0 0 0 0 0 0 0 0 0 0 0 0 0 0 0 0 0 0 0 0 0 0 0 0 0 0 0 0 0 0 0 0 0 0 0 0 0 0 0 0 0
0 0 0 0 0 0 0 0 0 0 0 0 0 0 0 0 0 0 0 0 0 0 0 0 0 0 0 0 0 0 0 0 0 0 0 0 0 0 0 0 0 0 0
0 0 0 0 0 0 0 0 0 0 0 0 0 0 0 0 0 0 0 0 0 0 0 0 0 0 0 0 0 0 0 0 0 0 0 0 0 0 0 0 0 0 0
0 0 0 0 0 0 0 0 0 0 0 0 0 0 0 0 0 0 0 0 0 0 0 0 0 0 0 0 0 0 0 0 0 0 0 0 0 0 0 0 0 0 0
0 0 0 0 0 0 0 0 0 0 0 0 0 0 0 0 0 0 0 0 0 0 0 0 0 0 0 0 0 0 0 0 0 0 0 0 0 0 0 0 0 0 0
0 0 0 0 0 0 0 0 0 0 0 0 0 0 0 0 0 0 0 0 0 0 0 0 0 0 0 0 0 0 0 0 0 0 0 0 0 0 0 0 0 0 0
0 0 0 0 0 0 0 0 0 0 0 0 0 0 0 0 0 0 0 0 0 0 0 0 0 0 0 0 0 0 0 0 0 0 0 0 0 0 0 0 0 0 0
0 0 0 0 0 0 0 0 0 0 0 0 0 0 0 0 0 0 0 0 0 0 0 0 0 0 0 0 0 0 0 0 0 0 0 0 0 0 0 0 0 0 0
0 0 0 0 0 0 0 0 0 0 0 0 0 0 0 0 0 0 0 0 0 0 0 0 0 0 0 0 0 0 0 0 0 0 0 0 0 0 0 0 0 0 0
0 0 0 0 0 0 0 0 0 0 0 0 0 0 0 0 0 0 0 0 0 0 0 0 0 0 0 0 0 0 0 0 0 0 0 0 0 0 0 0 0 0 0
0 0 0 0 0 0 0 0 0 0 0 0 0 0 0 0 0 0 0 0 0 0 0 0 0 0 0 0 0 0 0 0 0 0 0 0 0 0 0 0 0 0 0
0 0 0 0 0 0 0 0 0 0 0 0 0 0 0 0 0 0 0 0 0 0 0 0 0 0 0 0 0 0 0 0 0 0 0 0 0 0 0 0 0 0 0
0 0 0 0 0 0 0 0 0 0 0 0 0 0 0 0 0 0 0 0 0 0 0 0 0 0 0 0 0 0 0 0 0 0 0 0 0 0 0 0 0 0 0
0 0 0 0 0 0 0 0 0 0 0 0 0 0 0 0 0 0 0 0 0 0 0 0 0 0 0 0 0 0 0 0 0 0 0 0 0 0 0 0 0 0 0
Wind_Speed
11 10 10 8 8 8 7 5 5 6 5 5 5 4 3 4 4 4 6 6 6 5 5 3 4 3 3 3 2 2 2 2 2 2 2 2 1 1 1 1 2 3 3
12 11 10 9 8 7 5 4 4 4 4 3 3 3 4 5 5 6 8 8 7 6 5 5 3 3 3 3 3 2 1 1 2 1 2 2 1 1 1 2 2 2 3
12 10 10 10 9 8 6 4 3 3 3 4 4 5 5 5 5 6 6 9 9 8 7 7 5 5 5 4 5 4 2 1 2 2 1 1 2 2 1 2 2 3 3
12 11 10 10 10 9 8 9 8 5 4 4 5 7 6 6 6 6 7 9 9 9 8 8 7 7 6 6 6 6 4 3 2 2 2 2 2 2 2 2 2 2 2
11 11 11 10 10 10 9 9 10 9 8 7 6 8 8 8 7 8 10 9 8 9 9 8 8 7 7 8 8 7 7 5 5 3 2 3 2 2 1 2 3 2 1
11 11 10 11 11 11 10 10 12 12 12 12 11 11 11 10 11 10 8 7 7 7 9 9 8 8 7 7 7 7 8 6 6 5 4 3 3 3 2 2 3 3 2
10 10 11 12 11 12 12 12 13 13 13 14 14 13 12 12 11 10 9 8 7 7 8 8 7 6 6 6 6 6 6 6 6 5 4 3 3 2 2 2 3 4 3
11 12 11 11 11 12 12 13 14 14 13 14 13 12 12 10 9 10 9 9 7 7 7 7 7 7 7 7 6 6 6 5 5 6 5 3 3 3 3 2 3 4 4
12 12 12 12 12 12 12 13 13 13 13 13 14 13 12 12 12 11 10 8 6 7 7 7 7 7 7 6 5 5 5 5 5 4 5 4 3 3 3 3 3 3 4
12 12 11 11 11 12 12 13 14 14 13 12 11 12 12 11 11 10 10 8 7 6 6 6 6 6 6 6 5 4 5 5 4 3 4 4 4 4 4 4 3 3 3
12 11 11 11 11 11 12 12 13 13 13 13 12 12 10 10 10 9 8 7 6 6 6 6 5 6 6 5 5 5 5 6 5 6 6 5 4 4 5 5 4 4 4
12 12 12 11 11 11 11 11 11 12 12 11 11 10 9 9 9 8 7 6 6 6 6 6 6 6 7 6 6 6 6 5 5 5 5 6 5 5 5 5 5 4 4
13 12 11 11 11 11 10 10 10 10 10 10 10 9 9 8 8 7 7 6 6 6 6 6 6 6 7 7 7 6 5 5 5 4 5 5 5 5 5 5 5 4 5
12 12 11 11 10 10 9 9 9 9 9 9 9 9 8 7 7 6 6 5 5 5 5 5 6 7 9 10 9 9 6 5 5 4 4 4 4 4 5 5 5 6 6
13 12 11 9 9 8 8 8 8 8 8 8 9 8 7 6 6 5 5 4 4 5 5 5 6 6 7 8 9 9 8 6 5 4 4 4 3 2 3 5 5 6 6
13 12 11 9 9 7 7 7 7 6 6 7 8 7 6 6 5 4 4 4 4 5 5 6 6 7 7 6 8 8 7 7 6 5 5 6 0 2 5 7 9 9 8
12 11 10 9 7 6 6 7 6 6 6 6 6 6 5 5 4 5 4 4 4 4 4 4 5 7 5 5 8 10 7 7 5 4 4 6 5 5 6 9 11 9 10
12 10 9 7 6 5 5 5 5 5 6 6 6 6 5 5 4 4 3 3 3 3 3 4 4 5 5 5 7 12 8 6 4 4 3 3 3 5 6 8 8 8 7
11 9 8 7 6 5 5 4 4 5 6 6 5 5 4 4 3 3 3 3 2 2 2 3 3 4 3 3 7 10 7 4 5 4 3 3 3 4 6 7 8 9 8
10 8 8 7 6 5 4 4 4 4 5 5 5 4 4 4 3 3 2 2 1 2 2 3 2 3 3 1 5 8 6 6 6 5 3 1 2 5 6 6 8 9 8
10 9 8 7 6 5 4 4 5 5 4 4 4 3 2 1 2 2 2 2 2 2 2 1 1 2 2 2 3 5 4 6 7 6 5 2 4 9 10 8 7 9 9
10 9 7 6 5 4 4 5 5 4 3 3 3 2 1 2 3 1 1 2 2 2 0 0 0 2 3 1 1 5 7 7 6 6 6 6 12 14 14 10 10 13 11
9 8 7 7 6 5 4 5 4 3 2 2 1 0 1 2 2 2 2 1 1 2 2 2 2 2 1 1 2 6 10 10 6 6 11 14 15 13 10 9 11 9 6
9 7 7 7 6 5 5 4 3 2 1 0 1 1 1 1 1 1 3 3 4 4 4 3 3 3 2 5 5 6 7 9 7 8 12 14 13 9 9 9 6 4 4
8 7 6 7 7 6 5 4 3 1 0 1 1 1 1 1 1 3 4 5 5 4 4 5 5 4 4 4 5 5 6 7 7 9 8 6 5 4 3 3 4 3 3
8 7 7 7 6 5 4 3 2 1 1 2 3 2 1 1 2 4 4 6 5 4 3 2 3 2 3 6 9 10 11 13 11 7 6 5 4 4 4 4 4 4 4
Wind_Direction
81 77 80 71 81 90 100 110 129 135 144 153 164 164 142 116 94 78 70 66 58 60 66 67 60 47 50 44 34 34 16 19 358 324 310 288 282 323 324 341 10 26 32
78 68 74 76 68 73 88 110 130 133 142 149 148 139 122 105 92 80 67 63 61 55 65 60 58 55 58 49 34 28 20 33 22 348 318 318 334 354 26 15 23 33 32
74 65 63 62 62 60 55 64 76 104 127 131 134 130 115 109 97 82 70 55 53 51 53 59 57 56 57 50 41 22 22 49 42 40 17 348 335 340 16 16 28 29 29
69 63 58 56 51 51 48 45 47 57 70 104 138 137 128 116 96 88 81 69 58 55 52 57 58 58 56 51 44 35 27 34 35 42 42 48 36 348 332 351 18 14 20
72 66 58 53 51 48 50 52 51 49 52 60 84 100 97 97 95 90 84 76 65 59 55 55 59 59 59 58 54 47 43 42 39 33 26 28 32 15 335 320 341 340 343
76 71 64 57 53 51 51 55 59 54 52 59 69 87 99 102 99 94 90 80 71 62 60 60 61 60 59 58 57 53 52 48 46 40 33 26 26 8 354 331 327 325 316
78 72 65 60 55 54 56 59 64 60 59 65 67 73 85 89 91 92 87 83 75 68 62 63 61 59 58 59 59 58 52 45 45 46 32 18 30 8 351 338 333 325 312
77 71 68 66 62 59 60 64 67 66 65 69 71 72 76 82 83 83 87 84 80 75 69 64 61 57 54 55 55 55 48 40 36 44 35 8 16 3 358 343 334 326 321
82 77 72 69 66 64 64 69 73 73 72 74 77 76 78 82 85 84 83 82 83 83 74 68 64 57 50 45 55 62 47 42 35 31 29 9 357 1 350 339 337 333 326
91 84 78 74 72 71 71 71 74 76 75 76 79 83 81 82 84 85 84 84 82 80 79 74 69 64 55 41 39 55 40 39 27 19 28 13 2 354 343 338 339 340 329
99 92 87 82 81 79 77 78 78 80 79 79 79 81 82 84 84 83 84 84 84 81 77 75 72 69 59 46 36 37 43 36 27 16 15 10 6 6 345 351 345 343 343
103 98 94 88 83 81 79 78 80 83 84 84 84 83 83 82 84 84 83 80 76 74 71 65 60 62 57 43 34 28 30 28 21 12 5 2 4 1 357 347 337 337 325
107 102 95 89 84 81 79 79 80 82 85 87 85 83 82 81 81 80 77 73 68 63 63 61 56 53 50 38 23 17 17 18 11 7 1 356 359 0 358 332 335 331 332
108 102 95 89 85 81 81 80 80 83 87 87 86 84 83 83 82 80 77 77 78 71 61 61 59 60 51 35 17 2 4 6 358 0 352 350 1 7 350 332 345 340 329
109 105 102 97 93 89 85 83 82 79 83 89 90 90 90 88 85 81 76 68 63 71 63 62 60 66 64 34 17 352 355 350 344 350 343 333 344 351 298 317 330 323 319
117 113 111 107 101 96 95 94 94 94 94 97 100 100 99 98 97 94 80 68 58 53 52 51 54 56 53 35 14 357 339 328 332 342 336 320 343 313 298 298 296 287 289
121 118 115 109 105 102 106 107 106 107 109 110 112 111 106 101 94 87 80 69 63 60 55 47 63 87 70 23 360 353 325 309 316 324 324 334 2 18 357 332 314 299 286
124 121 119 118 114 110 110 115 121 121 112 105 102 102 101 92 85 83 74 63 56 55 57 50 55 88 79 16 356 342 318 303 314 320 322 333 7 30 354 327 319 315 312
128 129 130 127 126 127 128 125 120 114 111 105 99 92 89 87 81 74 63 51 39 32 52 68 61 81 105 14 352 347 320 332 338 333 349 341 1 28 350 326 320 319 317
130 133 135 132 129 127 127 121 111 101 99 96 90 80 70 69 68 57 39 24 358 9 24 62 67 73 92 81 341 344 336 349 341 333 330 64 341 337 336 325 316 313 319
137 138 134 130 125 123 118 109 101 93 91 94 91 85 68 48 95 72 21 345 359 21 4 20 100 110 104 174 277 321 333 344 334 331 330 360 339 330 324 313 288 290 307
138 134 129 126 127 132 128 111 100 98 97 93 89 80 5 353 72 68 354 330 328 312 265 238 143 137 149 149 244 292 298 299 307 315 329 334 325 318 311 302 288 298 305
137 135 136 133 133 130 118 110 109 115 115 106 107 159 353 34 26 0 339 332 340 352 21 23 31 46 69 125 299 308 306 306 298 317 325 316 308 307 300 296 300 302 293
136 141 141 137 131 129 124 125 137 143 136 168 245 237 208 166 110 7 11 29 23 14 8 19 21 21 35 34 8 347 338 344 345 343 322 312 302 292 281 291 296 286 292
140 145 141 136 137 143 147 152 153 155 212 279 283 280 254 139 118 84 47 40 63 48 16 12 6 9 14 11 336 326 325 329 328 325 308 309 322 335 336 332 329 322 328
138 140 142 143 145 150 152 157 167 195 245 269 272 265 202 167 151 136 122 60 84 110 79 36 353 357 360 326 322 320 315 309 310 312 303 316 335 342 345 346 343 344 344